Pine Bluff, AR

3:16 AM CST on December 16, 2017 (GMT -0600)
Grider

Weather History for KPBF - May, 2014

Change the Weather History Date:

Sunday, May 4, 2014

  Actual Average Record
Temperature  
Mean Temperature 72 °F 68 °F  
Max Temperature 90 °F 79 °F 94 °F (1943)
Min Temperature 53 °F 58 °F 35 °F (2013)
Degree Days  
Heating Degree Days 0 1  
Month to date heating degree days 15 5  
Since 1 July heating degree days 3422 2869  
Cooling Degree Days 7 4  
Month to date cooling degree days 7 16  
Year to date cooling degree days 61 103  
Growing Degree Days 22 (Base 50)    
Moisture  
Dew Point 49 °F    
Average Humidity 49    
Maximum Humidity 77    
Minimum Humidity 21    
Precipitation  
Precipitation 0.00 in 0.18 in 4.07 in (1979)
Month to date precipitation T 0.70  
Year to date precipitation 15.12 18.85  
Snow  
Snow 0.00 in 0.00 in - ()
Month to date snowfall 0.0 0.0  
Since 1 July snowfall 3.7 3.1  
Snow Depth 0.00 in    
Sea Level Pressure  
Sea Level Pressure 30.00 in    
Wind  
Wind Speed 8 mph (SSW)    
Max Wind Speed 20 mph    
Max Gust Speed 24 mph    
Visibility 10 miles    
Events      
T = Trace of Precipitation, MM = Missing Value Source: NWS Daily Summary

Daily Weather History Graph

Daily Weather History Graph

Search for Another Location

Airport or City:

Trip Planner

Search our weather history database for the weather conditions in past years. The results will help you decide how hot, cold, wet, or windy it might be!

Date:

Astronomy

May. 04, 2014 Rise Set
Actual Time 6:15 AM CDT 7:54 PM CDT
Civil Twilight 5:48 AM CDT 8:21 PM CDT
Nautical Twilight 5:15 AM CDT 8:53 PM CDT
Astronomical Twilight 4:41 AM CDT 9:27 PM CDT
Moon 10:40 AM CDT (5/4) No Moon Set
Length of Visible Light 14h 32m
Length of Day
13h 38m
Waxing Crescent, 28% of the Moon is Illuminated
May 4
Waxing Crescent
May 6
First Quarter
May 14
Full
May 21
Last Quarter
May 28
New

Hourly Weather History & Observations

Time (CDT) Temp. Dew Point Humidity Pressure Visibility Wind Dir Wind Speed Gust Speed Precip Events Conditions
12:53 AM 60.1 °F 48.9 °F 67% 30.03 in 10.0 mi Calm Calm - N/A   Clear
1:53 AM 60.1 °F 48.9 °F 67% 30.02 in 10.0 mi SW 3.5 mph - N/A   Clear
2:53 AM 57.0 °F 48.9 °F 74% 30.01 in 10.0 mi Calm Calm - N/A   Clear
3:53 AM 55.0 °F 48.0 °F 77% 30.01 in 10.0 mi SSW 3.5 mph - N/A   Clear
4:53 AM 55.0 °F 46.9 °F 74% 30.01 in 10.0 mi Calm Calm - N/A   Clear
5:53 AM 55.9 °F 46.9 °F 72% 30.03 in 10.0 mi SSW 5.8 mph - N/A   Clear
6:53 AM 55.9 °F 48.0 °F 75% 30.05 in 10.0 mi SSW 4.6 mph - N/A   Clear
7:53 AM 61.0 °F 48.9 °F 64% 30.05 in 10.0 mi SSW 5.8 mph - N/A   Clear
8:53 AM 69.1 °F 50.0 °F 51% 30.05 in 10.0 mi SW 6.9 mph - N/A   Clear
9:53 AM 75.9 °F 51.1 °F 42% 30.05 in 10.0 mi SW 11.5 mph - N/A   Clear
10:53 AM 79.0 °F 51.1 °F 38% 30.05 in 10.0 mi SW 10.4 mph - N/A   Clear
11:53 AM 82.9 °F 46.9 °F 28% 30.04 in 10.0 mi SW 15.0 mph 19.6 mph N/A   Clear
12:53 PM 86.0 °F 48.0 °F 27% 30.01 in 10.0 mi SSW 15.0 mph 19.6 mph N/A   Clear
1:53 PM 88.0 °F 46.9 °F 24% 29.99 in 10.0 mi SW 12.7 mph - N/A   Clear
2:53 PM 89.1 °F 45.0 °F 22% 29.97 in 10.0 mi SW 12.7 mph 21.9 mph N/A   Clear
3:53 PM 89.1 °F 44.1 °F 21% 29.96 in 10.0 mi WSW 12.7 mph 19.6 mph N/A   Clear
4:53 PM 89.1 °F 45.0 °F 22% 29.95 in 10.0 mi SSW 13.8 mph - N/A   Clear
5:53 PM 88.0 °F 46.0 °F 23% 29.94 in 10.0 mi SSW 13.8 mph - N/A   Clear
6:53 PM 84.9 °F 48.9 °F 29% 29.93 in 10.0 mi SSW 6.9 mph - N/A   Clear
7:53 PM 75.0 °F 53.1 °F 46% 29.94 in 10.0 mi South 6.9 mph - N/A   Clear
8:53 PM 70.0 °F 53.1 °F 55% 29.95 in 10.0 mi South 5.8 mph - N/A   Clear
9:53 PM 71.1 °F 52.0 °F 51% 29.96 in 10.0 mi SSW 8.1 mph - N/A   Clear
10:53 PM 70.0 °F 50.0 °F 49% 29.96 in 10.0 mi SSW 8.1 mph - N/A   Clear
11:53 PM 68.0 °F 50.0 °F 52% 29.97 in 10.0 mi SSW 5.8 mph - N/A   Clear